State College, PA

12:26 PM EST on February 23, 2018 (GMT -0500)
University Park

Weather History for KUNV - March, 2013

Change the Weather History Date:

Thursday, March 28, 2013

  Actual Average Record
Temperature  
Mean Temperature 36 °F -  
Max Temperature 41 °F 50 °F 81 °F (1945)
Min Temperature 32 °F 29 °F 13 °F (1982)
Degree Days  
Heating Degree Days 28    
Moisture  
Dew Point 26 °F    
Average Humidity 67    
Maximum Humidity 81    
Minimum Humidity 45    
Precipitation  
Precipitation 0.00 in - - ()
Sea Level Pressure  
Sea Level Pressure 30.09 in    
Wind  
Wind Speed 10 mph (WNW)    
Max Wind Speed 14 mph    
Max Gust Speed 22 mph    
Visibility 10 miles    
Events Snow    
Averages and records for this station are not official NWS values.
T = Trace of Precipitation, MM = Missing Value Source: NWS Daily Summary

Daily Weather History Graph

Daily Weather History Graph

Search for Another Location

Airport or City:

Trip Planner

Search our weather history database for the weather conditions in past years. The results will help you decide how hot, cold, wet, or windy it might be!

Date:

Astronomy

Mar. 28, 2013 Rise Set
Actual Time 7:01 AM EDT 7:32 PM EDT
Civil Twilight 6:33 AM EDT 7:59 PM EDT
Nautical Twilight 6:01 AM EDT 8:32 PM EDT
Astronomical Twilight 5:27 AM EDT 9:05 PM EDT
Moon 9:22 PM EDT (3/28) 7:27 AM EDT (3/28)
Length of Visible Light 13h 26m
Length of Day
12h 31m
Full, 98% of the Moon is Illuminated
Mar 28
Full
Apr 3
Last Quarter
Apr 10
New
Apr 18
First Quarter
Apr 25
Full

Hourly Weather History & Observations

Time (EDT) Temp. Windchill Dew Point Humidity Pressure Visibility Wind Dir Wind Speed Gust Speed Precip Events Conditions
12:15 AM 34.0 °F 28.8 °F 26.2 °F 73% 30.05 in 10.0 mi WSW 5.8 mph - N/A   Overcast
12:35 AM 34.0 °F 26.0 °F 27.0 °F 75% 30.05 in 10.0 mi West 10.4 mph - N/A   Overcast
12:55 AM 34.2 °F 25.7 °F 26.8 °F 74% 30.05 in 10.0 mi West 11.5 mph 16.1 mph N/A   Mostly Cloudy
1:15 AM 34.2 °F 26.2 °F 26.6 °F 74% 30.05 in 10.0 mi West 10.4 mph - N/A   Mostly Cloudy
1:35 AM 34.3 °F 25.5 °F 27.0 °F 74% 30.04 in 10.0 mi West 12.7 mph 16.1 mph N/A   Overcast
1:55 AM 34.7 °F 27.5 °F 27.0 °F 73% 30.04 in 10.0 mi West 9.2 mph - N/A   Overcast
2:15 AM 34.2 °F 25.7 °F 27.0 °F 75% 30.04 in 10.0 mi West 11.5 mph - N/A   Overcast
2:35 AM 34.3 °F 27.7 °F 26.8 °F 74% 30.04 in 10.0 mi West 8.1 mph - N/A   Overcast
2:55 AM 34.7 °F 26.4 °F 26.6 °F 72% 30.03 in 10.0 mi West 11.5 mph - N/A   Overcast
3:15 AM 34.2 °F 25.7 °F 27.3 °F 76% 30.03 in 10.0 mi West 11.5 mph 17.3 mph N/A Snow Light Snow
3:35 AM 33.3 °F 25.7 °F 27.3 °F 79% 30.03 in 10.0 mi WSW 9.2 mph - N/A   Mostly Cloudy
3:55 AM 33.8 °F 26.4 °F 27.3 °F 77% 30.02 in 10.0 mi West 9.2 mph - N/A   Mostly Cloudy
4:15 AM 34.2 °F 26.2 °F 27.5 °F 77% 30.02 in 10.0 mi West 10.4 mph - N/A   Overcast
4:35 AM 34.0 °F 28.0 °F 28.0 °F 79% 30.02 in 7.0 mi West 6.9 mph - N/A Snow Light Snow
4:55 AM 34.5 °F 27.9 °F 27.7 °F 76% 30.02 in 10.0 mi West 8.1 mph - N/A   Overcast
5:15 AM 34.2 °F 30.0 °F 28.2 °F 79% 30.02 in 10.0 mi West 4.6 mph - N/A   Overcast
5:35 AM 33.8 °F 28.6 °F 28.4 °F 81% 30.02 in 10.0 mi West 5.8 mph - N/A   Overcast
5:53 AM 32.0 °F 24.2 °F 15.8 °F 51% 30.02 in 5.0 mi West 9.2 mph - N/A Snow Light Snow
6:53 AM 33.8 °F 25.3 °F 28.4 °F 81% 30.04 in 5.0 mi NW 11.5 mph - N/A Snow Light Snow
7:10 AM 33.8 °F 24.8 °F 26.6 °F 75% 30.04 in 10.0 mi WNW 12.7 mph - N/A   Overcast
8:53 AM 33.8 °F 24.3 °F 24.8 °F 70% 30.08 in 10.0 mi WNW 13.8 mph - N/A   Overcast
9:53 AM 35.6 °F 27.5 °F 24.8 °F 65% 30.10 in 10.0 mi NNW 11.5 mph - N/A   Overcast
10:53 AM 37.4 °F 29.3 °F 24.8 °F 60% 30.10 in 10.0 mi WNW 12.7 mph 21.9 mph N/A   Mostly Cloudy
11:53 AM 39.2 °F 33.0 °F 21.2 °F 49% 30.11 in 10.0 mi NNW 9.2 mph - N/A   Overcast
12:53 PM 41.0 °F 34.3 °F 21.2 °F 45% 30.10 in 10.0 mi NNW 11.5 mph - N/A   Overcast
1:53 PM 41.0 °F 34.3 °F 23.0 °F 49% 30.11 in 10.0 mi NNW 11.5 mph - N/A   Overcast
2:53 PM 41.0 °F 34.3 °F 23.0 °F 49% 30.11 in 10.0 mi NW 11.5 mph - N/A   Overcast
3:53 PM 41.0 °F 34.3 °F 21.2 °F 45% 30.11 in 10.0 mi NNW 11.5 mph - N/A   Overcast
4:53 PM 41.0 °F 34.3 °F 23.0 °F 49% 30.12 in 10.0 mi NW 11.5 mph - N/A   Overcast
5:53 PM 41.0 °F 34.3 °F 23.0 °F 49% 30.13 in 10.0 mi West 11.5 mph - N/A   Overcast
6:53 PM 39.2 °F 32.0 °F 24.8 °F 56% 30.14 in 10.0 mi West 11.5 mph - N/A   Overcast
7:53 PM 39.2 °F 32.0 °F 23.0 °F 52% 30.16 in 10.0 mi NW 11.5 mph - N/A   Overcast
8:53 PM 37.4 °F 29.8 °F 28.4 °F 70% 30.18 in 10.0 mi West 11.5 mph - N/A   Overcast
9:35 PM 37.2 °F 30.6 °F 28.0 °F 69% 30.20 in 10.0 mi WNW 9.2 mph - N/A   Overcast
9:55 PM 36.9 °F 30.1 °F 27.5 °F 69% 30.20 in 10.0 mi WNW 9.2 mph - N/A   Overcast
10:15 PM 36.9 °F 31.4 °F 27.3 °F 68% 30.20 in 10.0 mi WNW 6.9 mph - N/A   Overcast
10:35 PM 36.7 °F 29.9 °F 27.3 °F 69% 30.20 in 10.0 mi WNW 9.2 mph - N/A   Overcast
10:55 PM 36.7 °F 29.4 °F 27.3 °F 69% 30.20 in 10.0 mi WNW 10.4 mph - N/A   Overcast
11:15 PM 36.5 °F 31.8 °F 27.5 °F 70% 30.20 in 10.0 mi WNW 5.8 mph - N/A   Overcast
11:35 PM 36.5 °F 31.8 °F 27.5 °F 70% 30.20 in 10.0 mi WNW 5.8 mph - N/A   Overcast
11:55 PM 36.3 °F 30.8 °F 27.5 °F 70% 30.20 in 10.0 mi NW 6.9 mph - N/A   Overcast